DW4509 Weather Reports


time (UTC)temp
C
wind
direction
speed
KPH
gust
KPH
rain 1hr
cm
rain 24hr
cm
rain mn
cm
humidity
%
barometer
mb
20260502130423 18 252 0.0 4.8 0.00 0.00 0.00 56 1015.1
20260502121058 18 189 0.0 1.6 0.00 0.00 0.00 57 1015.9
20260502115054 17 290 0.0 6.4 0.00 0.00 0.00 57 1016.4
20260502112936 17 84 0.0 6.4 0.00 0.00 0.00 57 1016.7
20260502111957 17 328 0.0 1.6 0.00 0.00 0.00 59 1016.6
20260502110929 16 248 0.0 0.0 0.00 0.00 0.00 63 1016.7
20260502105855 16 280 0.0 3.2 0.00 0.00 0.00 60 1016.8
20260502104830 17 58 0.0 1.6 0.00 0.00 0.00 61 1016.8
20260502103755 16 240 0.0 6.4 0.00 0.00 0.00 63 1016.8
20260502100611 16 248 0.0 4.8 0.00 0.00 0.00 64 1017.1
20260502071305 14 216 0.0 0.0 0.00 0.00 0.00 75 1017.5
20260502070252 13 183 0.0 0.0 0.00 0.00 0.00 77 1017.4
20260502065249 12 212 0.0 1.6 0.00 0.00 0.00 79 1017.5
20260502064258 12 188 0.0 0.0 0.00 0.00 0.00 82 1017.5
20260502062112 10 211 0.0 0.0 0.00 0.00 0.00 85 1017.6
20260502061040 10 211 0.0 0.0 0.00 0.00 0.00 85 1017.5
20260502060035 10 211 0.0 0.0 0.00 0.00 0.00 85 1017.6
20260502055036 10 211 0.0 0.0 0.00 0.00 0.00 85 1017.4
20260502052857 9 212 0.0 0.0 0.00 0.00 0.00 88 1017.4
20260502050717 8 205 0.0 0.0 0.00 0.00 0.00 88 1017.4
20260502045728 8 205 0.0 0.0 0.00 0.00 0.00 88 1017.4
20260502044659 8 214 0.0 0.0 0.00 0.00 0.00 88 1017.4
20260502043717 8 214 0.0 0.0 0.00 0.00 0.00 87 1017.3
20260502042717 8 214 0.0 0.0 0.00 0.00 0.00 87 1017.4
20260502041736 9 214 0.0 0.0 0.00 0.00 0.00 87 1017.4
20260502040744 9 214 0.0 0.0 0.00 0.00 0.00 87 1017.5
20260502035800 9 214 0.0 0.0 0.00 0.00 0.00 87 1017.5
20260502034807 9 193 0.0 0.0 0.00 0.00 0.00 86 1017.6
20260502033748 10 194 0.0 0.0 0.00 0.00 0.00 86 1017.6
20260502032800 10 193 0.0 0.0 0.00 0.00 0.00 85 1017.7
20260502031819 10 194 0.0 0.0 0.00 0.00 0.00 85 1017.6
20260502030816 10 191 0.0 0.0 0.00 0.00 0.00 85 1017.6
20260502025801 10 191 0.0 0.0 0.00 0.00 0.00 84 1017.5
20260502024802 11 191 0.0 0.0 0.00 0.00 0.00 85 1017.6
20260502022639 11 191 0.0 0.0 0.00 0.00 0.00 84 1017.8
20260502021632 11 211 0.0 0.0 0.00 0.00 0.00 84 1017.7
20260502020650 11 212 0.0 0.0 0.00 0.00 0.00 83 1017.8
20260502015711 12 212 0.0 0.0 0.00 0.00 0.00 83 1017.8
20260502014730 12 210 0.0 0.0 0.00 0.00 0.00 83 1017.9
20260502013724 12 210 0.0 0.0 0.00 0.00 0.00 84 1018.1
20260502011534 12 210 0.0 0.0 0.00 0.00 0.00 84 1018.2
20260502010523 12 210 0.0 0.0 0.00 0.00 0.00 84 1018.1
20260502005514 12 205 0.0 0.0 0.00 0.00 0.00 85 1018.2
20260502004526 11 206 0.0 0.0 0.00 0.00 0.00 85 1018.3
20260502003504 11 207 0.0 0.0 0.00 0.00 0.00 85 1018.4
20260502002436 11 207 0.0 0.0 0.00 0.00 0.00 85 1018.5
20260502001431 11 207 0.0 0.0 0.00 0.00 0.00 85 1018.5
20260502000440 11 206 0.0 0.0 0.00 0.00 0.00 85 1018.5
20260501235502 11 206 0.0 0.0 0.00 0.00 0.00 85 1018.5
20260501234457 11 206 0.0 0.0 0.00 0.00 0.00 85 1018.5
20260501233456 11 207 0.0 0.0 0.00 0.00 0.00 85 1018.5
20260501232434 11 199 0.0 0.0 0.00 0.00 0.00 84 1018.5
20260501225119 11 199 0.0 0.0 0.00 0.00 0.00 82 1018.7
20260501224127 12 199 0.0 0.0 0.00 0.00 0.00 81 1018.6
20260501223127 12 199 0.0 0.0 0.00 0.00 0.00 81 1018.6
20260501222120 12 199 0.0 0.0 0.00 0.00 0.00 80 1018.6
20260501221135 12 199 0.0 0.0 0.00 0.00 0.00 79 1018.6
20260501220149 13 199 0.0 0.0 0.00 0.00 0.00 79 1018.6
20260501212841 13 199 0.0 0.0 0.00 0.00 0.00 76 1018.4
20260501211852 13 199 0.0 0.0 0.00 0.00 0.00 76 1018.3
20260501210857 14 199 0.0 0.0 0.00 0.00 0.00 74 1018.2
20260501205908 15 199 0.0 0.0 0.00 0.00 0.00 72 1018.2
20260501204920 15 199 0.0 0.0 0.00 0.00 0.00 72 1018.3
20260501203849 15 199 0.0 0.0 0.00 0.00 0.00 71 1018.2
20260501202906 16 199 0.0 0.0 0.00 0.00 0.00 70 1018.1
20260501201927 16 266 0.0 0.0 0.00 0.00 0.00 68 1018.1
20260501200916 16 221 0.0 0.0 0.00 0.00 0.00 67 1018.0
20260501195918 17 259 0.0 0.0 0.00 0.00 0.00 65 1017.9
20260501194932 17 277 0.0 0.0 0.00 0.00 0.00 65 1018.0
20260501193933 17 266 0.0 6.4 0.00 0.00 0.00 64 1017.9
20260501192904 18 287 0.0 4.8 0.00 0.00 0.00 64 1017.9
20260501191925 18 265 0.0 3.2 0.00 0.00 0.00 64 1017.7
20260501190903 18 264 0.0 0.0 0.00 0.00 0.00 65 1017.5
20260501185928 19 255 0.0 1.6 0.00 0.00 0.00 65 1017.3
20260501184939 20 260 0.0 4.8 0.00 0.00 0.00 63 1017.3
20260501182813 21 267 0.0 0.0 0.00 0.00 0.00 62 1016.9
20260501181831 22 278 0.0 0.0 0.00 0.00 0.00 58 1016.9
20260501180820 23 278 0.0 0.0 0.00 0.00 0.00 59 1016.9
20260501175844 23 307 0.0 0.0 0.00 0.00 0.00 53 1016.8
20260501174856 22 252 0.0 0.0 0.00 0.00 0.00 62 1016.9
20260501173854 22 252 0.0 0.0 0.00 0.00 0.00 61 1017.0
20260501172848 22 240 0.0 0.0 0.00 0.00 0.00 59 1017.0
20260501171838 22 1 0.0 0.0 0.00 0.00 0.00 57 1017.1
20260501170818 23 233 0.0 0.0 0.00 0.00 0.00 55 1017.1
20260501165828 23 324 0.0 0.0 0.00 0.00 0.00 57 1017.2
20260501163623 23 269 0.0 3.2 0.00 0.00 0.00 53 1017.4
20260501162551 23 8 0.0 3.2 0.00 0.00 0.00 51 1017.4
20260501161531 24 212 0.0 0.0 0.00 0.00 0.00 51 1017.4
20260501160539 24 141 0.0 1.6 0.00 0.00 0.00 50 1017.4
20260501155511 24 86 0.0 6.4 0.00 0.00 0.00 49 1017.5
20260501154445 25 89 0.0 4.8 0.00 0.00 0.00 48 1017.6
20260501153423 25 216 0.0 6.4 0.00 0.00 0.00 48 1017.7
20260501152439 25 131 0.0 0.0 0.00 0.00 0.00 47 1017.8
20260501151427 25 220 0.0 6.4 0.00 0.00 0.00 47 1018.0
20260501150415 25 328 0.0 0.0 0.00 0.00 0.00 48 1018.1
20260501145352 25 20 0.0 4.8 0.00 0.00 0.00 46 1018.2